Retour au catalogue

THORAD AGENA D DEB

ActifLEO
NORAD 4973·DEBRIS·🇺🇸 United States

Lancé Apr 8, 1970 depuis Vandenberg Space Force Base

Loading…

Prochains Passages (prochaines 24 heures)

TLE

FraisSource: Space-Track

Époque: Sep 14, 2026, 21:07 UTC

1 04973U 70025GT  26257.87988625  .00000686  00000-0  43308-3 0  9993
2 04973 100.0410  52.2167 0090644 112.0155 249.0669 14.06119809852619

Suivez THORAD AGENA D DEB en temps réel avec AllMySat

Download on the App Store